[[{"header":{"parameterUnit":"m.s-1","parameterCategory":1,"la1":30.2991,"la2":30.254,"lo1":-89.0895,"lo2":-89.0444,"dy":0.0017,"dx":0.0017,"nx":28,"ny":28,"refTime":"2025-08-22T21:00:00:Z","depth":0,"parameterNumber":2,"parameterNumberName":"U-component_of_WINDS"},"data":[0,0,0,0,0,0,0,0,0,0,0,0,0,0,0,0,0,0,0,0,0,0,0,0,0,0,0,0,0,0,0,0,0,0,0,0,0,0,0,0,0,0,0,0,0,0,0,0,0,0,0,0,0,0,0,0,0,0,2.9963,2.9964,0,3.004,3.0041,3.0042,3.0011,3.0009,3.0007,3.0005,3.0085,3.0089,3.0093,0,0,0,0,0,0,0,0,0,0,0,0,0,2.9788,2.9791,2.9963,2.9964,2.9965,3.004,3.0041,3.0042,3.0011,3.0009,3.0006,3.0004,3.0084,3.0088,3.0093,0,0,0,0,0,0,0,0,0,0,0,0,0,2.9864,2.9792,2.9963,2.9958,2.9959,3.004,3.0041,3.0042,3.0011,3.0009,3.0006,3.0003,3.0082,3.0088,3.0094,3.0184,0,0,3.0111,3.0114,0,0,0,0,0,0,0,0,2.986,2.9871,2.9958,2.9959,2.9959,3.0013,3.0009,3.009,3.0012,2.9991,3.0005,3.0002,3.0063,3.007,3.0091,3.0188,3.0191,3.0112,3.0115,3.0118,3.0119,0,0,0,0,0,0,0,2.9855,2.9867,2.9993,2.9959,2.996,2.9952,2.996,3.0024,3.0042,2.9993,2.9991,3.0,3.0063,3.0086,3.0093,3.0192,3.0111,3.0117,3.012,3.0122,3.0365,3.0368,0,0,0,0,0,0,2.9849,2.9863,2.9991,2.9996,2.9902,2.9958,2.9966,2.9998,3.0041,3.0045,3.0003,2.9999,3.0077,3.0086,3.0095,3.0202,3.0118,3.0123,3.0126,3.0362,3.0366,3.0369,0,0,0,0,0,0,2.9846,2.9861,2.9988,2.9929,2.9944,2.9964,3.0,3.0001,3.0024,3.0048,3.0051,3.0022,3.0075,3.0087,3.0162,3.0205,3.0125,3.0131,3.0359,3.0363,3.0368,3.0418,0,0,0,0,0,0,2.9841,2.986,2.9895,2.993,2.9948,3.0053,3.0002,3.0005,3.0034,3.0029,3.0067,3.0071,3.0074,3.0153,3.0167,3.0211,3.0135,3.0355,3.0361,3.0366,3.0412,3.0423,3.0433,0,0,0,0,0,2.9835,2.9906,2.9896,2.9912,2.9991,3.0056,3.0066,3.0067,3.0037,3.0072,3.0088,3.007,3.0198,3.0161,3.0177,3.0223,3.0352,3.0359,3.0366,3.0408,3.0421,3.0433,0,0,0,0,0,0,2.9876,2.9911,2.99,2.9985,3.0018,3.005,3.0094,3.0082,3.0124,3.0118,3.0118,3.0127,3.0203,3.0221,3.0179,3.0312,3.0271,3.0281,3.0297,3.031,3.032,3.0314,3.014,0,0,0,0,0,2.9895,2.9944,2.9972,3.0044,3.0061,3.0075,3.0103,3.0101,3.0135,3.0148,3.0169,3.0203,3.025,3.0282,3.0327,3.0415,3.0422,3.0455,3.0465,3.0473,3.0482,3.0528,3.0542,3.0391,3.0391,3.0391,0,0,2.9934,2.9959,2.9991,3.0053,3.0078,3.0128,3.0086,3.0142,3.0179,3.0157,3.0228,3.0245,3.0282,3.0363,3.04,3.038,3.0525,3.0482,3.0489,3.0492,3.0536,3.055,3.0563,3.0396,3.0395,3.0394,0,0,3.0031,3.0056,3.0118,3.0144,3.0182,3.019,3.0206,3.024,3.025,3.0321,3.0305,3.0349,3.0432,3.0458,3.0483,3.059,3.0574,3.0605,3.0658,3.0703,3.0715,3.0725,3.0761,3.0774,3.0613,3.0613,3.0613,0,3.0076,3.0151,3.0152,3.0208,3.0236,3.0218,3.028,3.0305,3.0356,3.0375,3.0352,3.0454,3.0478,3.0564,3.059,3.0611,3.0627,3.0599,3.0713,3.0723,3.0733,3.0768,3.0781,3.0617,3.0616,3.0616,3.0616,0,3.0203,3.0255,3.0301,3.0349,3.0382,3.0442,3.0451,3.0484,3.048,3.0491,3.0563,3.0591,3.0641,3.0662,3.0659,3.0748,3.0734,3.0712,3.067,3.0751,3.0783,3.0796,3.0621,3.062,3.0619,3.0618,0,0,3.0327,3.0375,3.0392,3.0413,3.0453,3.0494,3.0552,3.06,3.0628,3.0664,3.0712,3.0782,3.0761,3.0789,3.0789,3.0829,3.0909,3.0802,3.0803,3.0819,3.1007,3.1021,3.1036,3.09,3.0903,3.0905,3.1003,0,3.0426,3.0527,3.0529,3.0622,3.067,3.0653,3.0704,3.0734,3.0746,3.0788,3.0801,3.085,3.0821,3.0837,3.0876,3.0891,3.0946,3.0884,3.0943,3.0945,3.0932,3.1053,3.1069,3.116,3.1015,3.1018,3.1019,0,3.0554,3.0593,3.069,3.0723,3.0743,3.0788,3.0832,3.0873,3.0906,3.0912,3.0943,3.0936,3.0995,3.0953,3.1033,3.0991,3.1015,3.1026,3.103,3.1034,3.0986,3.1058,3.1189,3.1202,3.104,3.1038,3.1036,0,3.0632,3.0709,3.0777,3.0796,3.0836,3.0868,3.0886,3.0917,3.0946,3.0984,3.1002,3.1048,3.1072,3.1107,3.1112,3.1082,3.1192,3.1151,3.1198,3.1197,3.122,3.1218,3.1355,3.124,3.124,3.1239,3.1239,0,3.0741,3.08,3.0812,3.0854,3.092,3.0922,3.0988,3.1003,3.1031,3.1075,3.1064,3.1105,3.1111,3.1154,3.1159,3.1224,3.1235,3.1241,3.1241,3.1241,3.124,3.1255,3.1248,3.1243,3.1242,3.1241,3.1241,0,3.0838,3.0849,3.0921,3.0953,3.0962,3.101,3.1037,3.1076,3.1087,3.1142,3.1156,3.1173,3.1222,3.1232,3.1291,3.1294,3.137,3.1365,3.1359,3.1357,3.1402,3.1397,3.1552,3.1571,3.1446,3.1447,3.1448,0,3.0906,3.0951,3.0988,3.1016,3.1035,3.1082,3.111,3.1115,3.1145,3.1186,3.122,3.1269,3.1307,3.1387,3.1405,3.1449,3.1444,3.1495,3.1451,3.1448,3.1442,3.1438,3.1442,3.1503,3.1504,3.1505,3.1506,0,3.1024,3.1027,3.1068,3.1112,3.1146,3.1181,3.1214,3.1238,3.1246,3.1281,3.1331,3.1361,3.142,3.1468,3.1513,3.1531,3.152,3.1521,3.1533,3.1532,3.1525,3.1527,3.1379,3.1516,3.1515,3.1515,3.1514,3.1514,3.1107,3.1146,3.1177,3.1223,3.1248,3.1279,3.1317,3.1332,3.1374,3.1423,3.1423,3.1478,3.1509,3.1568,3.1589,3.1631,3.1615,3.1634,3.1638,3.1642,3.1645,3.152,3.164,3.1639,3.1639,3.1639,3.1639,0,3.1222,3.1241,3.1284,3.133,3.1366,3.1353,3.1389,3.142,3.1468,3.1498,3.1536,3.1593,3.1639,3.166,3.1706,3.1735,3.1731,3.1747,3.1744,3.1748,3.1659,3.1642,3.1749,3.1749,3.1749,3.1749,3.1749,3.1749,3.1286,3.135,3.1357,3.1433,3.1452,3.1505,3.1526,3.1554,3.1578,3.1642,3.168,3.1694,3.172,3.1767,3.1808,3.1813,3.1829,3.1847,3.1849,3.1765,3.1754,3.1743,3.1727,3.1851,3.1851,3.1934,3.1935,3.1936]},{"header":{"parameterUnit":"m.s-1","parameterCategory":1,"la1":30.2991,"la2":30.254,"lo1":-89.0895,"lo2":-89.0444,"dy":0.0017,"dx":0.0017,"nx":28,"ny":28,"refTime":"2025-08-22T21:00:00:Z","depth":0,"parameterNumber":3,"parameterNumberName":"V-component_of_WINDS"},"data":[0,0,0,0,0,0,0,0,0,0,0,0,0,0,0,0,0,0,0,0,0,0,0,0,0,0,0,0,0,0,0,0,0,0,0,0,0,0,0,0,0,0,0,0,0,0,0,0,0,0,0,0,0,0,0,0,0,0,2.1632,2.1632,0,2.1658,2.1658,2.1659,2.1673,2.1673,2.1673,2.1673,2.1698,2.1698,2.1699,0,0,0,0,0,0,0,0,0,0,0,0,0,2.1591,2.1592,2.1632,2.1632,2.1632,2.1658,2.1658,2.1659,2.1673,2.1673,2.1673,2.1673,2.1698,2.1698,2.1699,0,0,0,0,0,0,0,0,0,0,0,0,0,2.1612,2.1592,2.1632,2.1643,2.1644,2.1658,2.1658,2.1659,2.1673,2.1673,2.1673,2.1673,2.1697,2.1698,2.1699,2.1704,0,0,2.1702,2.1702,0,0,0,0,0,0,0,0,2.1611,2.1614,2.1641,2.1642,2.1643,2.1662,2.1653,2.1674,2.1673,2.1662,2.1673,2.1673,2.1686,2.1688,2.1692,2.1705,2.1706,2.1702,2.1703,2.1703,2.1703,0,0,0,0,0,0,0,2.161,2.1613,2.1642,2.1641,2.1643,2.1645,2.1648,2.1657,2.1673,2.1663,2.1664,2.1667,2.1687,2.1691,2.1693,2.1706,2.1702,2.1703,2.1703,2.1704,2.1722,2.1721,0,0,0,0,0,0,2.1607,2.1611,2.1641,2.1643,2.1627,2.1646,2.1649,2.1656,2.1673,2.1676,2.1667,2.1668,2.169,2.1692,2.1694,2.1699,2.1703,2.1704,2.1704,2.1722,2.1722,2.1721,0,0,0,0,0,0,2.1606,2.1609,2.164,2.1627,2.1632,2.1647,2.1654,2.1657,2.1662,2.1676,2.1679,2.1669,2.169,2.1693,2.1701,2.17,2.1704,2.1705,2.1722,2.1722,2.1722,2.171,0,0,0,0,0,0,2.1605,2.1609,2.1612,2.1627,2.1632,2.1648,2.1654,2.1657,2.1663,2.1665,2.1679,2.1681,2.169,2.1699,2.1702,2.1702,2.1706,2.1722,2.1722,2.1722,2.1711,2.171,2.1709,0,0,0,0,0,2.1603,2.1607,2.1612,2.1615,2.1636,2.1648,2.165,2.1661,2.1663,2.1665,2.1674,2.1681,2.17,2.17,2.1703,2.1703,2.1722,2.1722,2.1722,2.1711,2.171,2.1709,0,0,0,0,0,0,2.1591,2.161,2.1615,2.1624,2.1634,2.165,2.1653,2.1659,2.1668,2.1669,2.1681,2.1684,2.1691,2.1698,2.1698,2.1707,2.1712,2.1712,2.1703,2.1702,2.1701,2.1699,2.1707,0,0,0,0,0,2.1589,2.1598,2.1613,2.162,2.1625,2.1638,2.1644,2.1651,2.1661,2.1666,2.1675,2.1685,2.1692,2.1698,2.1706,2.1712,2.1714,2.1713,2.1712,2.1711,2.1712,2.1714,2.1713,2.1721,2.1721,2.1721,0,0,2.1586,2.1597,2.1602,2.1618,2.1627,2.1634,2.1642,2.165,2.1655,2.1667,2.1675,2.1682,2.1693,2.17,2.1703,2.1706,2.171,2.1711,2.1711,2.1711,2.1714,2.1713,2.1712,2.1721,2.1721,2.1721,0,0,2.1584,2.1594,2.16,2.1608,2.1621,2.163,2.1631,2.1645,2.1651,2.1659,2.1668,2.1674,2.1688,2.1695,2.17,2.1699,2.1705,2.1701,2.1697,2.1699,2.1698,2.1698,2.1696,2.1696,2.1701,2.1701,2.1701,0,2.1578,2.1591,2.1602,2.161,2.1616,2.1627,2.1632,2.1639,2.1654,2.1658,2.166,2.1677,2.1685,2.1693,2.1693,2.1697,2.1698,2.17,2.1697,2.1697,2.1697,2.1696,2.1695,2.1701,2.1701,2.1701,2.1701,0,2.1583,2.1591,2.1594,2.1608,2.1615,2.1621,2.1633,2.1638,2.1644,2.1651,2.1659,2.1669,2.1679,2.1681,2.1688,2.169,2.1691,2.1695,2.17,2.1695,2.1694,2.1694,2.17,2.17,2.17,2.17,0,0,2.1575,2.1594,2.1595,2.1601,2.1615,2.1621,2.1627,2.1637,2.1641,2.165,2.1654,2.1665,2.1669,2.1675,2.1682,2.1684,2.1681,2.1688,2.1688,2.1686,2.1683,2.1679,2.1678,2.1685,2.1685,2.1685,2.1681,0,2.1574,2.1587,2.1596,2.1605,2.1611,2.1621,2.1626,2.1634,2.1641,2.1648,2.1655,2.1662,2.1667,2.1671,2.1673,2.1681,2.168,2.1681,2.1688,2.1688,2.1685,2.1678,2.1675,2.1671,2.1681,2.1681,2.1681,0,2.1576,2.1585,2.1594,2.1606,2.1609,2.1613,2.1622,2.1629,2.1638,2.1642,2.1649,2.1656,2.1661,2.1665,2.1672,2.1672,2.1675,2.168,2.168,2.168,2.1684,2.1678,2.167,2.167,2.1681,2.1681,2.1681,0,2.1568,2.1582,2.1589,2.1594,2.1608,2.1611,2.1617,2.1626,2.1631,2.1638,2.1641,2.1649,2.1654,2.1659,2.1668,2.167,2.1673,2.1678,2.1677,2.1676,2.1677,2.1677,2.1669,2.168,2.168,2.168,2.168,0,2.1567,2.1572,2.1585,2.159,2.1595,2.1605,2.161,2.1616,2.1624,2.1629,2.1637,2.1641,2.1652,2.1657,2.1664,2.1668,2.167,2.1674,2.1675,2.1673,2.1672,2.1675,2.1675,2.168,2.168,2.168,2.168,0,2.1559,2.1569,2.1577,2.1589,2.1592,2.1595,2.1606,2.1609,2.1616,2.1622,2.1624,2.1635,2.1641,2.165,2.1659,2.1663,2.1666,2.1669,2.1663,2.1664,2.1662,2.1662,2.1655,2.1655,2.1666,2.1666,2.1666,0,2.1558,2.1562,2.1574,2.1578,2.1584,2.159,2.1595,2.1604,2.1609,2.1619,2.1621,2.1628,2.1634,2.1643,2.1651,2.1658,2.166,2.1658,2.1661,2.1658,2.1659,2.1659,2.1659,2.1657,2.1656,2.1656,2.1656,0,2.1553,2.1557,2.1564,2.1572,2.1578,2.1584,2.1591,2.1594,2.1605,2.1609,2.1616,2.162,2.1629,2.1635,2.1643,2.1648,2.1653,2.1655,2.1655,2.1652,2.1648,2.1649,2.166,2.1655,2.1655,2.1655,2.1655,2.1655,2.1548,2.1552,2.1561,2.1567,2.1573,2.1579,2.1583,2.159,2.1596,2.1604,2.1609,2.1615,2.1622,2.1633,2.1638,2.1642,2.1644,2.1644,2.1644,2.1644,2.1643,2.1648,2.1643,2.1643,2.1643,2.1643,2.1643,0,2.1544,2.155,2.1556,2.1565,2.157,2.1575,2.1582,2.1586,2.1591,2.1598,2.1603,2.161,2.1616,2.1624,2.163,2.1632,2.1634,2.1633,2.1633,2.1633,2.1641,2.164,2.163,2.163,2.163,2.163,2.1631,2.1631,2.1542,2.1547,2.1552,2.156,2.1566,2.1572,2.1575,2.158,2.1586,2.1593,2.1598,2.1603,2.161,2.1616,2.1621,2.1623,2.1625,2.1623,2.1625,2.1632,2.1633,2.1634,2.1633,2.1623,2.1623,2.1618,2.1618,2.1618]}]]